Location: Niedergestelen
(46.3129°N, 7.7822°E)
Time: 14:26:17
(UTC+00:00)

Cosmos 1933 Rocket - Pass Details

Date: 01 December 2020
Orbit: 605 x 631 km, 82.5° (Epoch: 27 January)

Event Time Altitude Azimuth Distance (km) Brightness Sun altitude
Rises 17:36:27 0° 349° (NNW) 2,936 7.0 -18.7°
Reaches altitude 10° 17:38:42 10° 347° (NNW) 2,023 6.2 -19.1°
Maximum altitude 17:43:10 72° 264° (W) 666 3.8 -19.9°
Drops below altitude 10° 17:47:35 10° 180° (S) 2,000 6.3 -20.6°
Sets 17:49:48 0° 178° (S) 2,899 7.1 -21.0°
